HAZ3708 ZJQH-ZGGG

Flight info

Callsign HAZ3708
Flight time 1h 3m
Altitude 26600
Route DOBVI9ZD DOBVI W222 NUMKU W223 AGTEL W71 LH V19 UDUTI V21 AVPAM B330 GYA GYA9
Aircraft A320/M-SDE3FGHIRWY/LB1

Departure

Time 2026-05-07 04:47
Airport Qionghai Bo'ao Airport (ZJQH)

Arrival

Time 2026-05-07 05:51
Airport Guangzhou Baiyun International Airport (ZGGG)
Time Latitude Longitude Altitude Speed Heading
2026-05-07 04:18 19.14160 110.45715 24 ft 0 kts 60°
2026-05-07 04:38 19.14157 110.45710 24 ft 4 kts 59°
2026-05-07 04:38 19.14142 110.45686 24 ft 4 kts 52°
2026-05-07 04:39 19.14124 110.45665 24 ft 4 kts 34°
2026-05-07 04:39 19.14103 110.45657 24 ft 4 kts 338°
2026-05-07 04:39 19.14098 110.45658 24 ft 0 kts 329°
2026-05-07 04:41 19.14101 110.45657 24 ft 2 kts 330°
2026-05-07 04:41 19.14124 110.45633 24 ft 7 kts 291°
2026-05-07 04:41 19.14102 110.45567 23 ft 13 kts 239°
2026-05-07 04:42 19.14017 110.45553 23 ft 17 kts 150°
2026-05-07 04:42 19.13901 110.45623 23 ft 21 kts 149°
2026-05-07 04:42 19.13771 110.45700 24 ft 21 kts 150°
2026-05-07 04:42 19.13667 110.45764 24 ft 17 kts 150°
2026-05-07 04:43 19.13557 110.45830 24 ft 19 kts 150°
2026-05-07 04:43 19.13458 110.45855 24 ft 14 kts 208°
2026-05-07 04:43 19.13410 110.45774 26 ft 12 kts 231°
2026-05-07 04:43 19.13338 110.45765 26 ft 12 kts 154°
2026-05-07 04:44 19.13258 110.45812 25 ft 15 kts 151°
2026-05-07 04:44 19.13148 110.45878 24 ft 21 kts 149°
2026-05-07 04:44 19.13052 110.45963 24 ft 12 kts 115°
2026-05-07 04:44 19.12998 110.46052 23 ft 11 kts 127°
2026-05-07 04:45 19.12915 110.46067 24 ft 16 kts 223°
2026-05-07 04:45 19.12906 110.46029 23 ft 1 kts 293°
2026-05-07 04:45 19.12918 110.46018 27 ft 5 kts 319°
2026-05-07 04:45 19.12944 110.46001 22 ft 0 kts 328°
2026-05-07 04:46 19.13095 110.45910 24 ft 64 kts 330°
2026-05-07 04:46 19.13690 110.45551 25 ft 130 kts 330°
2026-05-07 04:47 19.14634 110.44972 52 ft 179 kts 329°
2026-05-07 04:47 19.15699 110.44317 730 ft 177 kts 328°
2026-05-07 04:47 19.16779 110.43672 1474 ft 179 kts 329°
2026-05-07 04:47 19.17870 110.43035 2068 ft 185 kts 329°
2026-05-07 04:48 19.19059 110.42322 2318 ft 207 kts 329°
2026-05-07 04:48 19.20378 110.41530 2662 ft 227 kts 330°
2026-05-07 04:48 19.21768 110.40697 3468 ft 231 kts 329°
2026-05-07 04:48 19.23162 110.39858 4347 ft 231 kts 329°
2026-05-07 04:49 19.24547 110.39022 5192 ft 230 kts 330°
2026-05-07 04:49 19.25948 110.38176 6018 ft 231 kts 330°
2026-05-07 04:49 19.27346 110.37333 6765 ft 232 kts 330°
2026-05-07 04:49 19.28758 110.36482 7488 ft 235 kts 330°
2026-05-07 04:50 19.30102 110.35502 8204 ft 236 kts 311°
2026-05-07 04:50 19.30906 110.34006 8918 ft 237 kts 283°
2026-05-07 04:50 19.30921 110.32276 9654 ft 238 kts 255°
2026-05-07 04:50 19.30142 110.30736 10280 ft 242 kts 226°
2026-05-07 04:51 19.28856 110.29575 10927 ft 244 kts 219°
2026-05-07 04:51 19.27532 110.28447 11596 ft 246 kts 219°
2026-05-07 04:51 19.26193 110.27309 12272 ft 248 kts 219°
2026-05-07 04:51 19.24897 110.26102 12943 ft 249 kts 231°
2026-05-07 04:52 19.24082 110.24516 13547 ft 252 kts 255°
2026-05-07 04:52 19.23961 110.22590 13854 ft 272 kts 280°
2026-05-07 04:52 19.24561 110.20635 14013 ft 295 kts 289°
2026-05-07 04:52 19.25320 110.18521 14145 ft 318 kts 290°
2026-05-07 04:53 19.26126 110.16280 14249 ft 341 kts 290°
2026-05-07 04:53 19.26999 110.13837 14386 ft 361 kts 290°
2026-05-07 04:53 19.27899 110.11305 14492 ft 379 kts 290°
2026-05-07 04:53 19.28842 110.08648 14796 ft 389 kts 290°
2026-05-07 04:54 19.29604 110.06858 15124 ft 394 kts 300°
2026-05-07 04:54 19.31404 110.04734 15589 ft 401 kts 323°
2026-05-07 04:54 19.33997 110.03479 16116 ft 409 kts 346°
2026-05-07 04:54 19.36791 110.03397 16613 ft 416 kts
2026-05-07 04:55 19.39578 110.04285 17134 ft 421 kts 20°
2026-05-07 04:55 19.42315 110.05556 17697 ft 424 kts 25°
2026-05-07 04:55 19.44952 110.06983 18191 ft 428 kts 27°
2026-05-07 04:55 19.47588 110.08468 18595 ft 431 kts 26°
2026-05-07 04:56 19.50205 110.09905 19024 ft 433 kts 26°
2026-05-07 04:56 19.52967 110.11347 19455 ft 435 kts 24°
2026-05-07 04:56 19.55677 110.12691 19870 ft 437 kts 23°
2026-05-07 04:56 19.58456 110.14020 20275 ft 440 kts 22°
2026-05-07 04:57 19.61250 110.15335 20663 ft 442 kts 22°
2026-05-07 04:57 19.64072 110.16666 21053 ft 445 kts 22°
2026-05-07 04:57 19.66906 110.18016 21429 ft 447 kts 22°
2026-05-07 04:57 19.69749 110.19382 21807 ft 450 kts 22°
2026-05-07 04:58 19.72591 110.20759 22172 ft 452 kts 22°
2026-05-07 04:58 19.75471 110.22158 22542 ft 454 kts 22°
2026-05-07 04:58 19.78352 110.23560 22890 ft 456 kts 22°
2026-05-07 04:58 19.81245 110.24964 23231 ft 458 kts 22°
2026-05-07 04:59 19.84152 110.26376 23546 ft 461 kts 22°
2026-05-07 04:59 19.87051 110.27786 23829 ft 462 kts 22°
2026-05-07 04:59 19.89993 110.29215 24115 ft 463 kts 22°
2026-05-07 04:59 19.92929 110.30641 24385 ft 465 kts 22°
2026-05-07 05:00 19.95827 110.32049 24651 ft 466 kts 22°
2026-05-07 05:00 19.98810 110.33495 24899 ft 468 kts 22°
2026-05-07 05:00 20.01789 110.34940 25154 ft 469 kts 22°
2026-05-07 05:00 20.04776 110.36194 25409 ft 468 kts 15°
2026-05-07 05:01 20.07991 110.36981 25681 ft 467 kts
2026-05-07 05:01 20.11178 110.37212 25912 ft 466 kts 356°
2026-05-07 05:01 20.14392 110.36875 26138 ft 464 kts 347°
2026-05-07 05:01 20.17609 110.36183 26372 ft 465 kts 346°
2026-05-07 05:02 20.20738 110.35512 26502 ft 467 kts 346°
2026-05-07 05:02 20.23930 110.34833 26533 ft 470 kts 347°
2026-05-07 05:02 20.27165 110.34152 26528 ft 471 kts 347°
2026-05-07 05:02 20.30382 110.33480 26526 ft 472 kts 347°
2026-05-07 05:03 20.33664 110.32793 26527 ft 478 kts 347°
2026-05-07 05:03 20.36898 110.32113 26526 ft 482 kts 347°
2026-05-07 05:03 20.40190 110.31416 26526 ft 484 kts 347°
2026-05-07 05:03 20.43506 110.30711 26526 ft 486 kts 347°
2026-05-07 05:04 20.46828 110.30001 26529 ft 488 kts 347°
2026-05-07 05:04 20.50197 110.29497 26526 ft 491 kts 355°
2026-05-07 05:04 20.53625 110.29558 26531 ft 494 kts
2026-05-07 05:04 20.57059 110.29795 26533 ft 495 kts
2026-05-07 05:05 20.60498 110.30030 26528 ft 495 kts
2026-05-07 05:05 20.63940 110.30258 26528 ft 495 kts
2026-05-07 05:05 20.67379 110.30480 26525 ft 496 kts
2026-05-07 05:05 20.70820 110.30701 26523 ft 496 kts
2026-05-07 05:06 20.74263 110.30926 26518 ft 496 kts
2026-05-07 05:06 20.77708 110.31151 26518 ft 496 kts
2026-05-07 05:06 20.81151 110.31377 26518 ft 496 kts
2026-05-07 05:06 20.84597 110.31604 26520 ft 496 kts
2026-05-07 05:07 20.88043 110.31830 26525 ft 496 kts
2026-05-07 05:07 20.91486 110.32055 26525 ft 496 kts
2026-05-07 05:07 20.94926 110.32280 26525 ft 496 kts
2026-05-07 05:07 20.98371 110.32507 26525 ft 496 kts
2026-05-07 05:08 21.01815 110.32728 26522 ft 496 kts
2026-05-07 05:08 21.05259 110.32988 26519 ft 497 kts
2026-05-07 05:08 21.08634 110.33850 26520 ft 501 kts 18°
2026-05-07 05:08 21.11779 110.35473 26521 ft 505 kts 30°
2026-05-07 05:09 21.14532 110.37814 26522 ft 508 kts 43°
2026-05-07 05:09 21.16754 110.40769 26522 ft 512 kts 56°
2026-05-07 05:09 21.18411 110.44146 26531 ft 513 kts 63°
2026-05-07 05:09 21.19966 110.47590 26528 ft 514 kts 63°
2026-05-07 05:10 21.21523 110.51040 26527 ft 514 kts 63°
2026-05-07 05:10 21.23081 110.54489 26525 ft 514 kts 63°
2026-05-07 05:10 21.24641 110.57937 26524 ft 514 kts 63°
2026-05-07 05:10 21.26202 110.61387 26527 ft 514 kts 63°
2026-05-07 05:11 21.27764 110.64842 26526 ft 515 kts 63°
2026-05-07 05:11 21.29320 110.68297 26527 ft 515 kts 63°
2026-05-07 05:11 21.30879 110.71755 26527 ft 515 kts 63°
2026-05-07 05:11 21.32437 110.75210 26531 ft 515 kts 63°
2026-05-07 05:12 21.33995 110.78663 26530 ft 515 kts 63°
2026-05-07 05:12 21.35552 110.82123 26536 ft 515 kts 63°
2026-05-07 05:12 21.37108 110.85585 26536 ft 515 kts 63°
2026-05-07 05:12 21.38660 110.89044 26535 ft 515 kts 63°
2026-05-07 05:13 21.40194 110.92462 26531 ft 515 kts 63°
2026-05-07 05:13 21.41764 110.95969 26531 ft 515 kts 63°
2026-05-07 05:13 21.43291 110.99391 26531 ft 515 kts 63°
2026-05-07 05:13 21.44861 111.02910 26532 ft 515 kts 63°
2026-05-07 05:14 21.46391 111.06329 26537 ft 515 kts 63°
2026-05-07 05:14 21.47945 111.09796 26537 ft 516 kts 63°
2026-05-07 05:14 21.49500 111.13265 26538 ft 516 kts 63°
2026-05-07 05:14 21.51051 111.16732 26541 ft 516 kts 63°
2026-05-07 05:15 21.52603 111.20205 26526 ft 516 kts 63°
2026-05-07 05:15 21.54155 111.23683 26515 ft 516 kts 63°
2026-05-07 05:15 21.55705 111.27159 26511 ft 516 kts 63°
2026-05-07 05:15 21.57255 111.30640 26524 ft 516 kts 63°
2026-05-07 05:16 21.58801 111.34117 26548 ft 515 kts 63°
2026-05-07 05:16 21.60345 111.37588 26543 ft 516 kts 63°
2026-05-07 05:16 21.61894 111.41069 26545 ft 516 kts 63°
2026-05-07 05:16 21.63440 111.44544 26545 ft 516 kts 63°
2026-05-07 05:17 21.64984 111.48025 26545 ft 516 kts 63°
2026-05-07 05:17 21.66524 111.51502 26548 ft 516 kts 63°
2026-05-07 05:17 21.68068 111.54988 26544 ft 517 kts 63°
2026-05-07 05:17 21.69612 111.58476 26544 ft 517 kts 63°
2026-05-07 05:18 21.71158 111.61967 26546 ft 517 kts 63°
2026-05-07 05:18 21.72706 111.65460 26547 ft 517 kts 63°
2026-05-07 05:18 21.74249 111.68948 26546 ft 517 kts 63°
2026-05-07 05:18 21.75794 111.72448 26547 ft 517 kts 63°
2026-05-07 05:19 21.77333 111.75939 26546 ft 517 kts 63°
2026-05-07 05:19 21.78877 111.79440 26546 ft 517 kts 63°
2026-05-07 05:19 21.80431 111.82930 26543 ft 517 kts 60°
2026-05-07 05:19 21.82399 111.86141 26553 ft 513 kts 47°
2026-05-07 05:20 21.84945 111.88792 26545 ft 508 kts 35°
2026-05-07 05:20 21.87926 111.90785 26547 ft 503 kts 22°
2026-05-07 05:20 21.91201 111.92044 26553 ft 498 kts 10°
2026-05-07 05:20 21.94614 111.92515 26545 ft 493 kts 358°
2026-05-07 05:21 21.98020 111.92325 26547 ft 490 kts 353°
2026-05-07 05:21 22.04740 111.91794 26544 ft 474 kts 353°
2026-05-07 05:21 22.08020 111.91542 26545 ft 471 kts 353°
2026-05-07 05:22 22.11282 111.91292 26543 ft 470 kts 353°
2026-05-07 05:22 22.14539 111.91040 26542 ft 469 kts 353°
2026-05-07 05:22 22.17793 111.90784 26541 ft 469 kts 353°
2026-05-07 05:22 22.21051 111.90527 26553 ft 469 kts 353°
2026-05-07 05:23 22.24264 111.90274 26542 ft 469 kts 353°
2026-05-07 05:23 22.27522 111.90020 26542 ft 470 kts 353°
2026-05-07 05:23 22.30782 111.89766 26541 ft 470 kts 353°
2026-05-07 05:23 22.34038 111.89509 26501 ft 470 kts 353°
2026-05-07 05:24 22.37297 111.89252 26266 ft 470 kts 353°
2026-05-07 05:24 22.40560 111.88994 26032 ft 470 kts 353°
2026-05-07 05:24 22.43825 111.88737 25800 ft 471 kts 353°
2026-05-07 05:24 22.47093 111.88481 25565 ft 471 kts 353°
2026-05-07 05:25 22.50347 111.88229 25341 ft 472 kts 353°
2026-05-07 05:25 22.53648 111.87971 25122 ft 473 kts 352°
2026-05-07 05:25 22.56932 111.87712 24895 ft 474 kts 352°
2026-05-07 05:25 22.60223 111.87453 24671 ft 475 kts 352°
2026-05-07 05:26 22.63521 111.87193 24449 ft 475 kts 352°
2026-05-07 05:26 22.66823 111.86932 24233 ft 476 kts 352°
2026-05-07 05:26 22.70106 111.86675 24010 ft 477 kts 352°
2026-05-07 05:26 22.73429 111.86416 23797 ft 478 kts 352°
2026-05-07 05:27 22.76741 111.86157 23585 ft 479 kts 352°
2026-05-07 05:27 22.80063 111.85894 23345 ft 479 kts 352°
2026-05-07 05:27 22.83390 111.85629 23094 ft 481 kts 352°
2026-05-07 05:27 22.86736 111.85362 22838 ft 482 kts 352°
2026-05-07 05:28 22.90078 111.85099 22576 ft 481 kts 352°
2026-05-07 05:28 22.93413 111.84836 22324 ft 479 kts 352°
2026-05-07 05:28 22.96732 111.84574 22082 ft 478 kts 352°
2026-05-07 05:28 23.00052 111.84312 21831 ft 476 kts 352°
2026-05-07 05:29 23.03298 111.84059 21585 ft 475 kts 353°
2026-05-07 05:29 23.06644 111.84239 21343 ft 480 kts
2026-05-07 05:29 23.09844 111.85352 21087 ft 485 kts 22°
2026-05-07 05:29 23.12697 111.87352 20856 ft 491 kts 38°
2026-05-07 05:30 23.14985 111.90102 20616 ft 493 kts 54°
2026-05-07 05:30 23.16545 111.93416 20381 ft 495 kts 70°
2026-05-07 05:30 23.17246 111.97001 20154 ft 495 kts 86°
2026-05-07 05:30 23.17074 112.00723 19921 ft 492 kts 101°
2026-05-07 05:31 23.16344 112.04399 19688 ft 490 kts 104°
2026-05-07 05:31 23.15588 112.08004 19457 ft 489 kts 104°
2026-05-07 05:31 23.14825 112.11594 19229 ft 486 kts 104°
2026-05-07 05:31 23.14066 112.15153 19003 ft 484 kts 104°
2026-05-07 05:32 23.13308 112.18718 18777 ft 482 kts 104°
2026-05-07 05:32 23.12559 112.22266 18548 ft 481 kts 104°
2026-05-07 05:32 23.11829 112.25746 18330 ft 479 kts 104°
2026-05-07 05:32 23.11099 112.29244 18102 ft 477 kts 104°
2026-05-07 05:33 23.10364 112.32759 17837 ft 475 kts 104°
2026-05-07 05:33 23.09630 112.36260 17578 ft 473 kts 104°
2026-05-07 05:33 23.08896 112.39737 17317 ft 472 kts 104°
2026-05-07 05:33 23.08160 112.43200 17079 ft 470 kts 104°
2026-05-07 05:34 23.07442 112.46661 16832 ft 468 kts 102°
2026-05-07 05:34 23.07039 112.50147 16582 ft 467 kts 94°
2026-05-07 05:34 23.06999 112.53680 16338 ft 465 kts 90°
2026-05-07 05:34 23.07005 112.57188 16099 ft 464 kts 90°
2026-05-07 05:35 23.07002 112.60678 15857 ft 461 kts 90°
2026-05-07 05:35 23.06994 112.64153 15620 ft 460 kts 90°
2026-05-07 05:35 23.06986 112.67616 15384 ft 458 kts 90°
2026-05-07 05:35 23.06981 112.71073 15149 ft 457 kts 90°
2026-05-07 05:36 23.06977 112.74513 14917 ft 455 kts 90°
2026-05-07 05:36 23.06961 112.77942 14686 ft 453 kts 91°
2026-05-07 05:36 23.06932 112.81346 14452 ft 444 kts 91°
2026-05-07 05:36 23.06899 112.84641 14221 ft 429 kts 91°
2026-05-07 05:37 23.06864 112.87829 13991 ft 415 kts 91°
2026-05-07 05:37 23.06830 112.90914 13766 ft 402 kts 91°
2026-05-07 05:37 23.06799 112.93908 13527 ft 391 kts 91°
2026-05-07 05:37 23.06772 112.96816 13270 ft 380 kts 91°
2026-05-07 05:38 23.06746 112.99653 13018 ft 370 kts 91°
2026-05-07 05:38 23.06722 113.02372 12770 ft 361 kts 91°
2026-05-07 05:38 23.06503 113.05048 12521 ft 350 kts 108°
2026-05-07 05:38 23.05376 113.07269 12273 ft 325 kts 138°
2026-05-07 05:39 23.03603 113.08501 12033 ft 295 kts 169°
2026-05-07 05:39 23.01661 113.08752 11792 ft 272 kts 186°
2026-05-07 05:39 22.99835 113.08609 11552 ft 256 kts 191°
2026-05-07 05:39 22.98105 113.08394 11315 ft 248 kts 187°
2026-05-07 05:40 22.96402 113.08709 10984 ft 257 kts 157°
2026-05-07 05:40 22.95089 113.10059 10550 ft 270 kts 120°
2026-05-07 05:40 22.94469 113.12008 10111 ft 277 kts 107°
2026-05-07 05:40 22.94021 113.13953 9661 ft 273 kts 105°
2026-05-07 05:41 22.93641 113.15951 9201 ft 268 kts 95°
2026-05-07 05:41 22.93962 113.17886 8827 ft 259 kts 61°
2026-05-07 05:41 22.95111 113.19305 8428 ft 248 kts 28°
2026-05-07 05:41 22.96685 113.19892 8042 ft 236 kts
2026-05-07 05:42 22.98296 113.20181 7660 ft 234 kts
2026-05-07 05:42 22.99863 113.20606 7298 ft 230 kts 12°
2026-05-07 05:42 23.00889 113.20928 7115 ft 224 kts 15°
2026-05-07 05:42 23.02805 113.21557 6680 ft 212 kts 13°
2026-05-07 05:43 23.03757 113.21827 6462 ft 207 kts 12°
2026-05-07 05:43 23.05125 113.22198 6156 ft 198 kts 12°
2026-05-07 05:43 23.06447 113.22553 5780 ft 197 kts 12°
2026-05-07 05:43 23.07735 113.22899 5622 ft 185 kts 12°
2026-05-07 05:44 23.08978 113.23233 5422 ft 186 kts 12°
2026-05-07 05:44 23.10230 113.23569 5186 ft 185 kts 12°
2026-05-07 05:44 23.11476 113.23904 4960 ft 184 kts 12°
2026-05-07 05:44 23.12721 113.24239 4724 ft 184 kts 12°
2026-05-07 05:45 23.13958 113.24572 4480 ft 184 kts 13°
2026-05-07 05:45 23.15198 113.24906 4241 ft 183 kts 13°
2026-05-07 05:45 23.16430 113.25238 4010 ft 182 kts 13°
2026-05-07 05:45 23.17661 113.25569 3770 ft 182 kts 13°
2026-05-07 05:46 23.18874 113.25895 3540 ft 182 kts 13°
2026-05-07 05:46 23.20113 113.26229 3305 ft 180 kts 14°
2026-05-07 05:46 23.21296 113.26548 3105 ft 175 kts 14°
2026-05-07 05:46 23.22459 113.26861 2877 ft 166 kts 14°
2026-05-07 05:47 23.23541 113.27152 2670 ft 155 kts 14°
2026-05-07 05:47 23.24580 113.27432 2465 ft 153 kts 15°
2026-05-07 05:47 23.25604 113.27709 2279 ft 152 kts 15°
2026-05-07 05:47 23.26615 113.27981 2078 ft 149 kts 14°
2026-05-07 05:48 23.27621 113.28252 1889 ft 150 kts 14°
2026-05-07 05:48 23.28634 113.28525 1714 ft 149 kts 15°
2026-05-07 05:48 23.29629 113.28794 1518 ft 148 kts 14°
2026-05-07 05:48 23.30620 113.29061 1309 ft 148 kts 15°
2026-05-07 05:49 23.31619 113.29331 1128 ft 146 kts 15°
2026-05-07 05:49 23.32615 113.29600 954 ft 150 kts 14°
2026-05-07 05:49 23.33614 113.29869 767 ft 146 kts 14°
2026-05-07 05:49 23.34599 113.30135 563 ft 147 kts 15°
2026-05-07 05:50 23.35591 113.30402 385 ft 145 kts 15°
2026-05-07 05:50 23.36562 113.30662 196 ft 143 kts 13°
2026-05-07 05:50 23.37520 113.30923 61 ft 137 kts 15°
2026-05-07 05:50 23.38327 113.31141 55 ft 96 kts 14°
2026-05-07 05:51 23.38810 113.31271 55 ft 42 kts 14°
2026-05-07 05:51 23.39019 113.31296 55 ft 29 kts 350°
2026-05-07 05:51 23.39188 113.31255 58 ft 22 kts 346°
2026-05-07 05:51 23.39271 113.31224 56 ft 3 kts 289°
2026-05-07 05:52 23.39260 113.31203 54 ft 5 kts 238°
2026-05-07 05:52 23.39213 113.31178 54 ft 11 kts 193°
2026-05-07 05:52 23.39128 113.31156 54 ft 14 kts 197°
2026-05-07 05:52 23.39113 113.31138 55 ft 1 kts 252°
2026-05-07 05:53 23.39114 113.31106 58 ft 8 kts 280°